Weather in Hamilton

United Kingdom     55°46′42″N   4°03′18″W
temp.,
°C
wind,
m/s
gust,
m/s
humid.,
%
clouds,
%
prec.,
mm/h
press.,
hPa
HPBL,
m
24 january, mon
mon2400:00+5sw61281100 0.0 1029680
03:00+6sw6138199 0.0 1028543
06:00+6ssw51279100 0.0 1028502
09:00+6ssw398795 0.0 1030431
12:00+7sw398395 0.0 1031573
15:00+7sw388670 0.0 1031636
18:00+5ssw249113 0.0 1032118
21:00+4ssw239025 0.0 103381
25 january, tue
tue2500:00+3ssw239362 0.0 1034103
03:00+3ssw239332 0.0 1033128
06:00+2ssw229514 0.0 103373
09:00+2ssw239431 0.0 103389
12:00+5sw388665 0.0 1033508
15:00+6wsw4985100 0.0 1032529
18:00+5sw41088100 0.0 1032448
21:00+6wsw4119065 0.0 1032585
26 january, wed
wed2600:00+5sw41094100 0.0 1032441
03:00+6wsw41195100 0.0 1032485
06:00+6sw41194100 0.1 1031550
09:00+5sw41293100 0.0 1030490
12:00+6sw61386100 0.0 1029666
15:00+6wsw71487100 0.0 1026697
18:00+6sw10198797 0.0 1022852
21:00+7wsw92090100 0.4 10201052
27 january, thu
thu2700:00+8w9179487 1.1 10201226
03:00+7w71483100 0.1 10211280
06:00+6wnw71268100 0.2 10231151
09:00+5wnw510795 0.1 1026662
12:00+7w7157899 0.1 10271467
15:00+7w6127673 0.1 10281265
18:00+5w511795 0.1 1031596
21:00+4w4877100 0.0 1033248
28 january, fri
fri2800:00+4w4108158 0.0 1035331
03:00+4wsw4109099 0.0 1035359
06:00+3sw3793100 0.0 1035260
09:00+4ssw41093100 0.0 1034425
12:00+6sw61384100 0.0 1033591
15:00+6sw61490100 0.1 1030585
18:00+7wsw61795100 0.1 1029811
21:00+8wsw71597100 0.1 10291031